Kosmos-2355

operational
NORAD ID: 25366 Int'l Des: 1998-036 Owner: VKSR Country: RU
LEOPOLAR

About Kosmos-2355

Description loading...

Live Position

Loading 3D Globe...

Upcoming Passes

Altitude History

Altitude vs Time

uPlot chart will show altitude changes over time

Two-Line Element Set

1 25366U 98036D 26061.48782372 .00000035 00000-0 18306-3 0 9993
2 25366 82.5869 44.0876 0354638 60.1964 58.5093 12.21820457235996
Epoch: Mar 2, 2026 • Age: 26 hours

Current Status

Altitude 1535.8 km
Velocity 7.13 km/s
Sub-Earth Point 39.79°N, 33.33°E
Launch Date Jun 15, 1998
Age 27.7 years
Type other

Technical Details

Classification Payload
Mass 225.00 kg
Dry Mass 225.00 kg
Total Mass 225.00 kg
Length 1.60 m
Diameter 0.80 m
Span 7.00 m
Shape Cyl + Ant
Manufacturer NPOPMR
Bus Type Strela-3
Phase Status In Orbit
Owner/State VKSR/RU

Large Constellations

Loading constellations...